Voltar ao catálogo

METEOR 2-17 DEB

AtivoPO
NORAD 35370·DEBRIS·🇷🇺 Russia

Lançado Jan 30, 1988 de Plesetsk Cosmodrome

Loading…

Próximas Passagens (próximas 24 horas)

TLE

EnvelhecendoSource: Space-Track

Época: Sep 4, 2026, 14:19 UTC

1 35370U 88005AE  26247.59691475  .00001019  00000-0  65102-3 0  9994
2 35370  82.5238 191.7773 0027532  49.3622 129.2991 14.02456318976210

Acompanhe METEOR 2-17 DEB em tempo real com AllMySat

Download on the App Store